This is the latest recevied weather packets stored in our database for station/object KB8TTR. If no packets are shown the sender has not sent any weather packets the latest 10 day(s).
| Time | Temp. | Humidity | Pressure | Rain* | Wind** | Luminosity | Snow |
|---|---|---|---|---|---|---|---|
| 1788362430 | 31.11° C | 68% | 1017.5 hPa | 0 mm | - | 345 W/m² | - |
| 1788362126 | 31.11° C | 69% | 1017.3 hPa | 0 mm | - | 658 W/m² | - |
| 1788361825 | 31.11° C | 70% | 1017.5 hPa | 0 mm | - | 612 W/m² | - |
| 1788361520 | 30.56° C | 70% | 1017.3 hPa | 0 mm | - | 574 W/m² | - |
| 1788361216 | 31.11° C | 68% | 1017.4 hPa | 0 mm | - | 274 W/m² | - |
| 1788360911 | 31.11° C | 70% | 1017.3 hPa | 0 mm | - | 601 W/m² | - |
| 1788360605 | 30.56° C | 71% | 1017.2 hPa | 0 mm | - | 523 W/m² | - |
| 1788360302 | 30.56° C | 71% | 1017.3 hPa | 0 mm | - | 547 W/m² | - |
| 1788360002 | 30.56° C | 71% | 1017.3 hPa | 0 mm | - | 378 W/m² | - |
| 1788359697 | 30° C | 73% | 1017.3 hPa | 0 mm | - | 453 W/m² | - |
| 1788359392 | 30° C | 73% | 1017.2 hPa | 0 mm | - | 440 W/m² | - |
| 1788359088 | 29.44° C | 74% | 1017.3 hPa | 0 mm | - | 421 W/m² | - |
| 1788358788 | 29.44° C | 76% | 1017.2 hPa | 0 mm | - | 400 W/m² | - |
| 1788358483 | 28.89° C | 76% | 1017.1 hPa | 0 mm | - | 376 W/m² | - |
| 1788358183 | 28.89° C | 77% | 1017.3 hPa | 0 mm | - | 356 W/m² | - |
| 1788357879 | 28.89° C | 77% | 1017.2 hPa | 0 mm | - | 336 W/m² | - |
| 1788357578 | 28.89° C | 78% | 1017.3 hPa | 0 mm | - | 328 W/m² | - |
| 1788357274 | 28.89° C | 77% | 1017.4 hPa | 0 mm | - | 316 W/m² | - |
| 1788356973 | 28.33° C | 78% | 1017.3 hPa | 0 mm | - | 303 W/m² | - |
| 1788356669 | 28.33° C | 79% | 1017.1 hPa | 0 mm | - | 293 W/m² | - |
| 1788356365 | 28.33° C | 79% | 1017.3 hPa | 0 mm | - | 275 W/m² | - |
| 1788356064 | 27.78° C | 79% | 1017.4 hPa | 0 mm | - | 258 W/m² | - |
| 1788355759 | 27.78° C | 80% | 1017.4 hPa | 0 mm | - | 236 W/m² | - |
| 1788355455 | 27.78° C | 80% | 1017.4 hPa | 0 mm | - | 218 W/m² | - |
| 1788355149 | 27.78° C | 80% | 1017.3 hPa | 0 mm | - | 205 W/m² | - |
* Rain latest hour (hover to see other rain measurements)
** Current wind speed in m/s (hover to see current wind gust speed)